652  
NZUS99 KTBW 280017  
RWRTPA  
FLORIDA REGIONAL WEATHER ROUNDUP  
NATIONAL WEATHER SERVICE TAMPA BAY RUSKIN FL  
800 PM EDT TUE JUN 27 2017  
 
NOTE: "FAIR" INDICATES FEW OR NO CLOUDS BELOW 12,000 FEET WITH NO  
SIGNIFICANT WEATHER AND/OR S TO VISIBILITY
.  
 
 
STATION/POSITION
 
 
 
FLZ042-048>051-055-056-060-061-280100-  
EXTRA STATIONS  
 
CITY SKY/WX TMP DP RH WIND PRES REMARKS
 
EVERGLADES CTY NOT AVBL  
CRYSTAL RIVER FAIR 86 72 62 NE5 29.99R HX 92  
SEBRING CLOUDY 79 73 83 NE5 29.99R  
EGLIN AFB MOCLDY 79 66 65 NE3 29.99S  
CANAVERAL LGT RAIN 77 73 87 CALM 29.99R  
 

 
FLZ001>010-012>015-280100-  
PANHANDLE FLORIDA  
 
CITY SKY/WX TMP DP RH WIND PRES REMARKS
 
PENSACOLA CLOUDY 82 67 60 NE3 29.98S  
PENSACOLA NAS CLOUDY 81 67 62 NE9 29.97S  
MILTON NAS CLOUDY 77 71 82 SE3 30.00  
CRESTVIEW CLOUDY 79 71 76 CALM 30.01R  
VALPARAISO MOCLDY 79 71 77 N3 29.98S  
MARY ESTHER MOCLDY 78 69 73 N5 29.98R  
PANAMA CITY FAIR 81 70 69 N6 29.97R  
TYNDALL AFB CLOUDY 81 73 76 E5 29.97S  
APALACHICOLA CLOUDY 79 74 84 SE8 29.98S  
 
STATION/POSITION
 
 
29.2N 88.2W  
28.8N 86.0W  
28.5N 84.5W  
 

 
FLZ011-016>039-280100-  
NORTH FLORIDA  
 
CITY SKY/WX TMP DP RH WIND PRES REMARKS
 
MARIANNA CLOUDY 81 69 67 NE6 29.99R  
TALLAHASSEE LGT RAIN 75 73 93 VRB5 29.99S  
PERRY LGT RAIN 76 74 92 CALM 30.00S  
CROSS CITY LGT RAIN 77 73 88 NE5 30.00R  
GAINESVILLE CLOUDY 74 72 93 NE6 30.01R  
MAYPORT NAS LGT RAIN 77 72 84 E9 29.99F  
JACKSONVILLE LGT RAIN 74 73 97 NE10 30.02S FOG  
JAX NAS RAIN 75 72 90 E8 30.04R FOG  
JAX CRAIG LGT RAIN 74 72 93 E8 30.03R  
ST AUGUSTINE LGT RAIN 75 73 94 E6 30.03R FOG  
 
STATION/POSITION
 
 
KEATON BEACH  
31.4N 80.9W  
ST AUGUSTINE  
 

 
FLZ040-043>046-052-053-057-058-063-280100-  
CENTRAL FLORIDA  
 
CITY SKY/WX TMP DP RH WIND PRES REMARKS
 
OCALA MOCLDY 81 72 74 N6 30.00R  
LEESBURG CLOUDY 77 74 90 SE9 30.01F  
SANFORD LGT RAIN 76 73 91 SW5 30.01R FOG  
ORLANDO EXEC CLOUDY 75 74 96 S6 30.01S  
ORLANDO INTL TSTM 71 71 100 NW6 30.02R  
KISSIMMEE LGT RAIN 73 72 94 CALM 30.02R  
WINTER HAVEN CLOUDY 74 70 87 E12 30.01R  
LAKELAND MOCLDY 79 77 94 E8 30.00R  
BARTOW DRIZZLE 72 N/A N/A E14 30.01R  
 

 
FLZ041-047-054-059-064-280100-  
EAST CENTRAL FLORIDA  
 
CITY SKY/WX TMP DP RH WIND PRES REMARKS
 
DAYTONA BEACH TSTM 81 77 88 CALM 30.00R  
TITUSVILLE MOCLDY 73 73 100 VRB5 30.00  
PATRICK AFB CLOUDY 78 76 93 N3 30.00R  
MELBOURNE CLOUDY 79 75 87 W7 30.00R  
VERO BEACH LGT RAIN 78 77 96 NW7 29.98S FOG  
FT PIERCE LGT RAIN 76 74 93 N3 29.97F FOG  
STUART PTCLDY 82 70 65 SE9 29.98R THUNDER  
 
STATION/POSITION
 
 
28.9N 78.5W  
 

 
FLZ042-048>051-055-056-060-061-280100-  
WEST CENTRAL FLORIDA  
 
CITY SKY/WX TMP DP RH WIND PRES REMARKS
 
BROOKSVILLE PTCLDY 86 72 62 NW6 30.00R HX 92  
TAMPA MOCLDY 86 72 62 NW12 29.98R HX 92  
MACDILL AFB PTCLDY 86 74 69 NW9 29.97 HX 94  
ST PETERSBURG PTCLDY 86 73 65 NW9 29.98R HX 93  
ST PET-WHITTED CLEAR 87 73 62 N10 29.96R HX 94  
SARASOTA PTCLDY 85 72 65 N6 29.96R HX 91  
 
STATION/POSITION
 
 
CEDAR KEY  
28.5N 84.5W  
VENICE  
 

 
FLZ062-065-066-069-070-075>078-280100-  
SOUTHWEST FLORIDA AND KEYS  
 
CITY SKY/WX TMP DP RH WIND PRES REMARKS
 
PUNTA GORDA PTCLDY 83 72 69 N12 29.99R  
FT MYERS PTCLDY 80 77 90 CALM 29.96R  
SOUTHWEST INTL PTCLDY 81 72 74 W6 29.97R  
NAPLES PTCLDY 87 74 64 NW7 29.96R HX 95  
MARATHON CLEAR 87 76 69 NE7 29.96R HX 97  
KEY WEST NAS PTCLDY 86 77 74 N8 29.97R HX 97  
KEY WEST INTL CLEAR 87 76 69 N6 29.97R HX 97  
 
STATION/POSITION
 
 
VENICE  
SAND KEY  
LONG KEY  
MOLASSES REEF  
 

 
FLZ067-068-071>074-280100-  
SOUTHEAST FLORIDA  
 
CITY SKY/WX TMP DP RH WIND PRES REMARKS
 
W PALM BEACH MOCLDY 84 74 71 SE7 29.97R HX 91  
POMPANO BEACH MOCLDY 85 75 72 SE6 29.96R HX 93  
FT LAUDER-EXEC CLOUDY 83 73 72 E5 29.96R  
FT LAUDERDALE CLOUDY 84 75 74 SE7 29.95S HX 92  
PEMBROKE PINES CLOUDY 84 74 71 S3 29.97S HX 91  
OPA LOCKA MOCLDY 83 77 82 CALM 29.97R HX 92  
MIAMI CLOUDY 83 74 74 SE5 29.97R  
WEST KENDALL CLOUDY 81 75 82 CALM 29.97R  
HOMESTEAD PTCLDY 82 77 84 CALM 29.97 HX 90  
 
STATION/POSITION
 
 
LAKE WORTH  
FOWEY ROCKS  
SETTLEMENT POINT  
 

 
 
 
CLICK HERE TO GO TO PREVIOUS BULLETINS.

The Nexlab FL Page Main Text Page